Weather in Anuradhapura

Sri Lanka     8°21′28″N   80°25′18″E
В апреле 2022 года жителям России запретили посещать сайт meteo.paraplan.net по решению Генеральной прокуратуры. Аудитория сайта уменьшилась в 10 раз. Владельцы сайта не видят смысла в поддержке погодного сервера в таких условиях. Сайт будет закрыт в октябре.
temp.,
°C
wind,
m/s
gust,
m/s
humid.,
%
clouds,
%
prec.,
mm/h
press.,
hPa
HPBL,
m
26 september, mon
mon2623:30+25s388563 5.6 1009321
02:30+25ssw4108479 0.2 1008467
05:30+24ssw4108998 0.4 1008431
08:30+29sw576372 0.0 1010815
11:30+34sw554542 0.0 10081671
14:30+34wsw7541100 0.0 10052287
17:30+30wsw796013 0.0 1006921
20:30+26sw5117540 0.0 1009731
27 september, tue
tue2723:30+26ssw51181100 0.0 1009778
02:30+25sw51183100 0.0 1008834
05:30+25sw5118613 0.5 1009720
08:30+29sw686667 0.0 1010925
11:30+34sw664333 0.0 10081687
14:30+34sw654273 0.1 10042139
17:30+30sw6760100 0.1 1006963
20:30+26sw597799 0.1 1009661
28 september, wed
wed2823:30+26ssw51181100 0.1 1008649
02:30+25sw5118474 0.1 1006698
05:30+24sw51289100 1.0 1007699
08:30+28sw7970100 0.0 10091060
11:30+32sw7854100 0.1 10081574
14:30+31sw7956100 1.3 10051567
17:30+28sw71066100 1.3 10061077
20:30+25sw61282100 0.0 1008866
29 september, thu
thu2923:30+25ssw61383100 0.0 1008877
02:30+25sw71386100 0.0 1006816
05:30+24sw61387100 0.0 1007793
08:30+27sw7127398 0.0 10091032
11:30+31wsw81055100 0.0 10081561
14:30+31sw8105588 0.1 10051585
17:30+28sw7107087 0.2 10061111
20:30+26sw61279100 0.0 1009872
30 september, fri
fri3023:30+25sw61384100 0.0 1009872
02:30+25sw71381100 0.0 1007916
05:30+25sw61282100 0.0 1008985
08:30+28sw8117084 0.0 10091187
11:30+30sw81059100 0.1 10091544
14:30+29wsw81156100 0.0 10061403
17:30+28sw7126260 0.0 10071213
20:30+26sw71377100 0.0 1009820